Weather History for Torrington, WY

Change the Weather History Date:

Wednesday, July 23, 2014

  Actual Average Record
Temperature  
Mean Temperature 79 °F 75 °F  
Max Temperature 92 °F 91 °F 103 °F (2005)
Min Temperature 66 °F 59 °F 50 °F (2004)
Degree Days  
Heating Degree Days 0 0  
Month to date heating degree days 7 0  
Since 1 June heating degree days 85 75  
Since 1 July heating degree days 7 0  
Cooling Degree Days 14 10  
Month to date cooling degree days 187 203  
Year to date cooling degree days 265 337  
Since 1 June cooling degree days 249 319  
Growing Degree Days 28 (Base 50)    
Moisture  
Dew Point 62 °F    
Average Humidity 63    
Maximum Humidity 87    
Minimum Humidity 38    
Precipitation  
Precipitation 0.00 in 0.08 in 1.01 in (2004)
Month to date precipitation 1.17 1.33  
Year to date precipitation 11.28 9.22  
Sea Level Pressure  
Sea Level Pressure 30.08 in    
Wind  
Wind Speed 14 mph (SE)    
Max Wind Speed 24 mph    
Max Gust Speed 31 mph    
Visibility 10 miles    
Events      
T = Trace of Precipitation, MM = Missing Value Source: NWS Daily Summary

Daily Weather History Graph

Daily Weather History Graph

Search for Another Location

Airport:

Trip Planner

Search our weather history database for the weather conditions in past years. The results will help you decide how hot, cold, wet, or windy it might be!

Date:

Astronomy

Jul. 23, 2014 Rise Set
Actual Time 5:41 AM MDT 8:24 PM MDT
Civil Twilight 5:08 AM MDT 8:56 PM MDT
Nautical Twilight 4:27 AM MDT 9:37 PM MDT
Astronomical Twilight 3:40 AM MDT 10:24 PM MDT
Moon 3:02 AM MDT (7/23) 5:54 PM MDT (7/23)
Length of Visible Light 15h 48m
Length of Day
14h 43m
Waning Crescent, 9% of the Moon is Illuminated
Jul 23
Waning Crescent
Jul 26
New
Aug 3
First Quarter
Aug 10
Full
Aug 17
Last Quarter

Hourly Weather History & Observations

Time (MDT) Temp. Heat Index Dew Point Humidity Pressure Visibility Wind Dir Wind Speed Gust Speed Precip Events Conditions
12:53 AM 73.0 °F - 59.0 °F 61% 30.12 in 10.0 mi ESE 17.3 mph - N/A   Clear
1:53 AM 71.1 °F - 61.0 °F 70% 30.12 in 10.0 mi SE 13.8 mph 23.0 mph N/A   Clear
2:53 AM 68.0 °F - 62.1 °F 81% 30.12 in 10.0 mi ESE 11.5 mph - N/A   Clear
3:53 AM 66.9 °F - 62.1 °F 84% 30.13 in 10.0 mi ESE 10.4 mph - N/A   Scattered Clouds
4:01 AM 68.0 °F - 63.0 °F 84% 30.30 in 10.0 mi ESE 11.5 mph - N/A   Mostly Cloudy
4:53 AM 66.9 °F - 63.0 °F 87% 30.15 in 10.0 mi ENE 12.7 mph - N/A   Overcast
5:53 AM 66.9 °F - 63.0 °F 87% 30.16 in 10.0 mi East 20.7 mph 25.3 mph N/A   Overcast
6:53 AM 66.9 °F - 57.9 °F 73% 30.16 in 10.0 mi SE 15.0 mph 21.9 mph N/A   Overcast
7:30 AM 68.0 °F - 57.9 °F 70% 30.32 in 10.0 mi SE 15.0 mph 23.0 mph N/A   Overcast
7:53 AM 69.1 °F - 57.9 °F 68% 30.17 in 10.0 mi SE 15.0 mph 23.0 mph N/A   Overcast
8:53 AM 71.1 °F - 60.1 °F 68% 30.17 in 10.0 mi SE 15.0 mph - N/A   Overcast
9:23 AM 71.1 °F - 60.1 °F 68% 30.31 in 10.0 mi SE 15.0 mph - N/A   Overcast
9:53 AM 70.0 °F - 61.0 °F 73% 30.18 in 10.0 mi SE 16.1 mph - N/A   Overcast
10:53 AM 73.0 °F - 63.0 °F 71% 30.17 in 10.0 mi SSE 15.0 mph - N/A   Overcast
11:53 AM 80.1 °F 81.7 °F 64.0 °F 58% 30.12 in 10.0 mi SSE 20.7 mph 31.1 mph N/A   Mostly Cloudy
12:53 PM 82.9 °F 84.4 °F 64.0 °F 53% 30.08 in 10.0 mi SSE 20.7 mph 28.8 mph N/A   Partly Cloudy
1:53 PM 87.1 °F 87.8 °F 63.0 °F 44% 30.04 in 10.0 mi SSE 17.3 mph 26.5 mph N/A   Clear
2:53 PM 90.0 °F 90.6 °F 63.0 °F 40% 30.01 in 10.0 mi South 17.3 mph - N/A   Clear
3:53 PM 91.0 °F 91.5 °F 62.1 °F 38% 29.97 in 10.0 mi SSE 11.5 mph 21.9 mph N/A   Clear
4:53 PM 91.0 °F 91.9 °F 63.0 °F 39% 29.96 in 10.0 mi SSE 13.8 mph - N/A   Clear
5:53 PM 86.0 °F 88.2 °F 66.0 °F 51% 29.95 in 10.0 mi South 15.0 mph 23.0 mph N/A   Clear
6:53 PM 86.0 °F 86.8 °F 63.0 °F 46% 29.93 in 10.0 mi SE 5.8 mph - N/A   Clear
7:53 PM 84.9 °F 86.1 °F 64.0 °F 49% 29.93 in 10.0 mi ESE 6.9 mph - N/A   Clear
8:53 PM 82.9 °F 85.0 °F 66.0 °F 56% 29.91 in 10.0 mi SE 9.2 mph - N/A   Clear
9:53 PM 81.0 °F 83.0 °F 66.0 °F 60% 29.92 in 10.0 mi SSE 16.1 mph 19.6 mph N/A   Clear
10:53 PM 78.1 °F - 59.0 °F 52% 29.91 in 10.0 mi ESE 6.9 mph - N/A   Clear
11:53 PM 73.9 °F - 55.0 °F 52% 29.89 in 10.0 mi East 11.5 mph - N/A   Clear